Home > Weather > Canberra > Past weeks

Flag for Australia Weather for the Past 2 Weeks in Canberra, Australian Capital Territory, Australia

Now
68 °F

Passing clouds.


Feels Like: 68 °F
Forecast: 57 / 89 °F
Wind: 5 mph from North

Location: Canberra Airport

Current Time: Feb 7, 2016 at 11:35:35 AM

Latest Report: Feb 7, 2016 at 11:00 AM


Visibility: N/A

Pressure: 30.12 "Hg (28.16 "Hg at 577m altitude)

Humidity: 60%

Dew point: 54 °F

Location of CanberraLocation

Historic Weather in Canberra — Graph

°F

Canberra Temperature Yesterday

Maximum temperature yesterday: 75 °F (at 3:00 PM)
Minimum temperature yesterday: 55 °F (at 6:00 AM)
Average temperature yesterday: 65 °F

High & Low Weather Summary for the Past Weeks

 TemperatureHumidityPressure
High84 °F (Jan 28, 4:00 PM)100% (Jan 24, 6:00 AM)30.15 "Hg (Jan 24, 6:00 AM)
Low50 °F (Feb 2, 5:30 AM)34% (Feb 2, 3:00 PM)29.56 "Hg (Jan 29, 5:30 PM)
Average66 °F75%29.87 "Hg
* Reported Jan 23 10:00 AM — Feb 7 10:00 AM, Canberra, Weather by CustomWeather, © 2016

Note: Actual official high and low records may vary slightly from our data, if they occured in-between our weather recording intervals... More about our weather records

Advertising

Canberra Weather History for the Previous 24 Hours

 ConditionsComfort  
Time TempWeatherWind HumidityBarometerVisibility
10:00 AM
Sun, Feb 7
66 °FPassing clouds.3 mph68%30.12 "HgN/A
9:30 AM64 °FPassing clouds.2 mph64%30.12 "HgN/A
9:00 AM61 °FSunny.3 mph77%30.12 "Hg10 mi
8:00 AM57 °FSunny.7 mph82%30.12 "Hg10 mi
7:30 AM54 °FSunny.3 mph94%30.12 "Hg10 mi
7:00 AM52 °FSunny.5 mph94%30.12 "Hg10 mi
6:30 AM52 °FFog.No wind94%30.12 "HgN/A
6:00 AM50 °FClear.2 mph94%30.09 "Hg10 mi
5:00 AM52 °FClear.3 mph100%30.09 "HgN/A
4:30 AM52 °FClear.2 mph94%30.09 "HgN/A
4:00 AM54 °FClear.6 mph94%30.09 "HgN/A
3:30 AM55 °FClear.6 mph88%30.09 "HgN/A
3:00 AM54 °FClear.6 mph94%30.09 "HgN/A
2:30 AM55 °FClear.7 mph88%30.09 "HgN/A
2:00 AM55 °FClear.5 mph94%30.09 "HgN/A
1:30 AM57 °FClear.6 mph88%30.12 "HgN/A
1:00 AM57 °FClear.7 mph88%30.12 "HgN/A
12:30 AM59 °FClear.7 mph88%30.12 "HgN/A
12:00 AM59 °FClear.7 mph82%30.12 "HgN/A
11:30 PM
Sat, Feb 6
59 °FClear.5 mph82%30.12 "HgN/A
11:00 PM61 °FClear.7 mph83%30.12 "HgN/A
10:30 PM61 °FClear.10 mph77%30.12 "HgN/A
10:00 PM63 °FClear.15 mph77%30.12 "HgN/A
9:30 PM63 °FClear.14 mph77%30.09 "HgN/A
9:00 PM64 °FClear.15 mph68%30.09 "HgN/A
8:30 PM66 °FClear.12 mph64%30.07 "HgN/A
8:00 PM68 °FSunny.9 mph60%30.07 "HgN/A
7:30 PM72 °FSunny.12 mph53%30.07 "HgN/A
7:00 PM73 °FSunny.10 mph50%30.04 "HgN/A
6:30 PM73 °FSunny.12 mph50%30.04 "HgN/A
6:00 PM73 °FPassing clouds.12 mph47%30.04 "HgN/A
5:30 PM75 °FScattered clouds.9 mph47%30.04 "HgN/A
5:00 PM73 °FScattered clouds.13 mph47%30.04 "HgN/A
4:30 PM75 °FScattered clouds.7 mph44%30.04 "HgN/A
4:00 PM73 °FScattered clouds.14 mph47%30.07 "HgN/A
3:00 PM75 °FScattered clouds.14 mph47%30.07 "HgN/A
2:30 PM73 °FPassing clouds.8 mph47%30.07 "HgN/A
2:00 PM73 °FScattered clouds.12 mph47%30.09 "HgN/A
1:00 PM73 °FScattered clouds.8 mph47%30.09 "HgN/A
12:30 PM72 °FScattered clouds.10 mph50%30.12 "HgN/A
11:30 AM70 °FScattered clouds.12 mph53%30.12 "HgN/A
11:00 AM70 °FPassing clouds.10 mph53%30.12 "HgN/A
Weather by CustomWeather, © 2016

See weather overviewHow to use our weather pages